Location: Unnamed
(51.5169°N, 0.1311°W)
Time: 06:11:03
(UTC+01:00)

Vanguard 1 - Pass Details

Date: 17 August 2024
Orbit: 649 x 3825 km, 34.2° (Epoch: 16 September)

Event Time Altitude Azimuth Distance (km) Brightness Sun altitude
Rises 01:25:23 0° 255° (WSW) 4,614 13.3 -25.0°
Reaches altitude 10° 01:28:20 10° 246° (WSW) 3,987 12.9 -25.0°
Enters shadow 01:30:37 18° 236° (SW) 3,629 12.6 -24.9°
Exits shadow 01:39:50 33° 175° (S) 3,724 12.4 -24.7°
Drops below altitude 10° 01:53:16 10° 133° (SE) 6,347 13.9 -24.3°
Sets 01:59:39 0° 126° (SE) 7,701 14.4 -24.1°
